Find Starlink 32453

NORAD ID: 61671 Int'l Des: 2024-193 Owner: SPXS Country: US Constellation: starlink operational
LEOCIRCULAR

当前视图

正在加载3D地球...

About Starlink 32453

Starlink 32453 (NORAD 61671) is a starlink constellation satellite (v2 mini) launched Oct 26, 2024 by SPXS of US. It operates in LEO, CIRCULAR orbit with a mass of 730.00 kg.

即将过境

Passes for default location (London). Set your location on the main map for personalized predictions.

高度历史

Loading altitude history...

两行轨道根数

1 61671U 24193L 26264.00618787 .00000343 00000-0 22827-4 0 9992
2 61671 53.1600 262.8510 0001464 85.7421 274.3747 15.31702392106446
Epoch: Sep 21, 2026 • Age: 12 hours

当前状态

高度 480.7 km
远地点 / 近地点 N/A
速度 7.62 km/s
星下点 -30.48°S, 46.45°E
发射日期 Oct 26, 2024
运行时间 1.9 years
类型 internet

技术详情

分类 Payload
质量 730.00 kg
干质量 700.00 kg
长度 0.30 m
跨度 29.00 m
形状 ? Box + pan
制造商 SPXS
平台类型 Starlink V2M
阶段状态 In Orbit
所有者/国家 SPXS/US

Most Searched